Theta_e
326 325 323 320 316 309 308 306 308 315 312 314 310 307 306 306 306 306 307 306 305 305 304 305 306 306 307 305 303 307 307 309 309 309 309 311 310 315 317 315 314 309 310 312 312 322 325 318 318 322 320 325 326 329
325 325 322 319 310 309 307 306 309 314 313 313 310 307 307 306 306 305 306 305 305 305 304 305 306 306 307 308 306 307 308 307 308 304 304 308 311 314 317 316 314 316 315 321 319 319 317 318 317 318 319 321 323 323
325 324 321 313 309 308 307 306 308 314 313 313 310 307 307 307 306 305 305 304 305 304 304 306 309 308 309 309 309 308 309 307 309 308 306 304 309 312 317 316 316 315 312 314 315 317 314 317 317 317 318 319 321 321
324 322 315 310 309 308 307 306 307 314 313 313 310 307 307 307 307 306 306 305 304 304 303 307 307 309 309 310 310 309 309 309 308 311 309 307 309 310 314 314 314 313 312 312 315 314 316 317 316 316 318 320 319 322
324 320 313 310 309 308 307 306 307 314 313 313 310 307 306 307 308 308 308 307 305 304 303 305 308 308 309 310 310 311 310 309 309 309 310 310 311 312 310 312 312 313 314 315 316 312 313 314 314 316 318 319 320 323
324 317 315 310 308 308 307 306 308 314 313 312 309 307 307 308 308 308 309 308 306 304 304 301 308 310 310 311 311 312 312 308 310 310 310 310 310 309 312 313 309 309 311 313 313 312 313 313 314 316 318 319 320 322
323 317 316 309 308 308 306 306 312 314 314 312 309 307 307 308 308 308 307 306 306 305 306 305 306 310 309 310 311 312 312 312 312 312 311 312 311 308 308 310 308 310 310 312 311 312 313 313 313 314 320 319 320 320
322 318 313 309 308 307 306 311 314 313 314 310 309 307 307 308 309 309 309 306 306 306 307 306 305 308 309 311 311 311 311 310 310 310 310 310 309 308 308 308 308 308 310 310 312 312 312 313 314 314 317 321 319 320
320 313 309 309 308 307 308 315 314 313 313 309 308 309 309 309 310 311 309 306 305 307 307 309 299 305 309 311 311 311 311 308 310 309 309 309 310 310 309 308 309 309 308 310 311 312 313 313 314 314 316 318 320 318
314 311 309 309 308 307 314 314 314 314 310 309 309 309 310 312 311 310 306 307 307 307 307 305 309 307 309 310 309 309 309 305 308 307 309 307 310 310 309 309 309 310 308 310 310 311 312 312 312 314 315 317 318 319
315 309 308 308 307 311 314 315 314 313 309 310 311 312 313 312 309 309 310 309 310 308 309 310 310 308 310 308 307 309 305 305 308 310 308 309 307 308 308 310 310 309 310 310 310 311 310 310 310 312 314 316 316 318
309 309 308 308 312 315 315 315 313 311 312 313 313 313 312 310 310 311 311 312 311 313 311 311 310 310 310 311 310 309 309 309 309 309 307 309 305 309 308 309 310 308 307 307 308 308 308 308 308 310 312 314 315 316
309 308 308 310 315 316 315 314 312 313 313 314 314 313 312 312 311 315 313 310 310 315 313 311 309 310 310 311 309 307 312 313 310 311 312 309 308 308 307 309 309 306 305 306 306 307 307 306 307 309 311 313 313 314
309 308 308 316 317 316 316 315 312 313 313 314 315 312 316 319 316 318 316 316 317 316 314 312 310 310 311 311 310 312 309 308 309 310 311 308 308 307 306 307 309 307 304 303 303 303 304 305 306 307 308 309 310 310
309 308 314 319 318 317 316 315 312 312 314 315 316 312 317 317 318 317 316 316 317 316 313 312 313 312 312 310 309 310 309 309 306 304 309 309 308 307 305 306 307 308 305 304 303 302 301 301 302 303 303 305 307 308
309 313 320 318 317 319 317 315 313 314 315 316 315 316 316 315 315 315 315 314 315 315 315 315 312 313 312 312 310 309 309 303 304 308 310 309 306 306 306 304 304 306 308 306 305 304 303 302 301 300 300 300 300 300
310 320 313 311 317 317 315 314 314 315 317 318 316 316 316 314 314 314 314 314 314 315 317 316 317 315 312 314 312 308 307 308 310 310 309 305 306 305 303 303 303 304 308 308 307 307 307 305 303 302 301 300 300 300
308 307 306 310 317 316 316 316 317 318 319 319 316 315 314 314 315 314 314 314 314 315 315 314 309 310 308 310 306 303 308 309 305 304 304 303 304 303 303 304 304 306 308 308 306 306 305 306 306 305 303 301 300 300
308 307 308 312 312 318 319 318 319 319 319 317 315 314 314 314 313 312 312 313 314 313 312 309 305 305 304 304 304 305 304 304 304 302 302 303 303 303 304 305 305 307 307 305 302 301 301 301 304 304 304 303 302 300
311 317 317 318 317 317 319 321 320 320 317 317 315 315 314 313 313 311 312 313 311 310 308 305 304 305 305 305 304 304 302 302 301 302 303 303 303 303 303 303 304 304 302 301 301 301 301 301 301 302 302 303 303 302
313 320 319 320 318 318 319 321 319 319 317 316 315 313 313 313 312 310 310 310 309 309 307 306 305 304 304 304 303 303 303 302 301 302 302 301 301 301 301 301 300 300 300 299 299 300 300 300 300 301 301 300 300 301
322 324 324 321 321 320 319 319 319 319 317 315 315 315 315 315 313 312 310 310 308 309 306 305 304 303 303 302 302 303 302 301 301 301 301 300 300 299 299 299 298 298 298 298 298 298 298 298 299 299 300 300 300 300
323 323 322 323 321 319 317 318 319 319 316 316 317 316 316 314 312 311 304 302 304 307 305 303 302 302 302 302 302 302 301 301 300 300 300 299 299 298 298 298 297 297 296 297 297 297 296 297 297 299 299 299 300 300
324 324 324 323 320 316 315 315 314 314 315 315 316 317 316 312 307 303 303 300 302 307 304 304 304 301 301 301 301 300 300 300 300 299 299 299 298 298 297 297 297 296 296 297 297 297 297 296 297 298 298 299 300 300
323 320 320 317 317 320 319 317 314 315 317 315 316 313 314 309 305 305 303 301 300 301 302 303 304 304 303 301 300 300 300 299 299 299 298 298 298 297 296 296 296 296 296 297 297 297 297 297 297 296 297 298 299 299
314 317 319 318 317 317 317 317 316 316 317 316 315 313 311 307 306 308 305 303 303 304 304 305 305 303 302 300 299 299 299 299 299 298 298 297 297 296 296 297 297 297 296 297 298 298 298 297 297 298 298 298 298 299
315 319 318 317 316 317 317 317 317 316 316 315 313 313 308 308 308 307 304 304 304 304 305 304 301 300 300 299 298 298 298 298 298 298 297 297 298 298 298 298 298 298 298 298 298 298 298 298 298 298 298 298 298 298
319 317 316 316 318 317 315 314 312 311 310 311 310 309 308 307 306 305 304 304 305 306 306 301 300 301 300 298 298 298 298 297 298 298 298 298 297 297 297 297 297 297 298 298 298 298 298 298 298 298 298 298 298 298
318 317 318 317 314 314 313 310 308 308 308 310 308 307 306 305 304 305 306 306 305 303 303 304 301 300 299 299 298 298 297 295 296 297 297 297 297 297 297 297 297 297 298 297 298 298 298 298 297 298 298 298 298 298
318 316 315 313 312 309 308 307 306 306 307 306 306 305 305 306 306 306 306 303 302 302 303 303 300 299 299 299 299 297 296 296 296 296 296 296 297 297 297 297 298 297 297 297 297 297 297 297 297 297 297 297 297 297
316 314 314 312 309 306 305 305 305 305 305 305 305 306 306 307 307 304 302 301 300 300 300 299 299 299 299 299 297 297 297 297 297 297 297 297 298 298 298 297 297 297 297 297 297 297 297 297 297 298 297 297 297 297
316 315 313 312 309 307 308 306 305 305 305 305 306 306 306 305 306 306 302 300 300 300 299 299 299 299 299 298 297 297 298 298 299 298 299 299 299 299 299 299 299 299 298 298 298 298 298 298 298 298 297 297 297 297
316 315 313 312 313 313 311 310 310 308 308 307 306 305 304 304 304 304 301 301 301 301 299 299 300 299 299 298 298 298 299 299 299 299 299 299 299 300 299 300 299 299 299 298 298 298 298 298 298 298 297 297 297 297
Wind_Speed
29 23 15 13 15 18 22 25 25 17 12 12 8 4 5 5 4 1 2 1 3 3 9 5 3 7 7 5 1 6 6 3 2 2 2 2 3 2 2 3 2 5 7 5 3 4 2 28 10 7 11 13 12 20
21 22 11 11 15 17 21 23 23 13 11 9 7 4 3 4 3 0 0 1 4 8 7 12 13 14 12 8 13 3 5 7 3 1 3 3 2 2 3 2 4 4 2 3 3 4 2 11 11 18 25 13 17 23
20 17 9 11 14 17 20 22 21 12 9 6 3 2 4 3 2 2 1 1 4 5 8 5 3 7 6 8 9 6 8 4 6 3 4 2 3 3 2 4 3 3 10 3 2 1 8 15 28 33 32 30 17 19
18 9 8 10 13 17 20 21 21 10 7 4 1 4 5 7 6 5 4 3 3 3 2 3 5 1 7 11 15 16 24 26 19 2 1 0 2 8 5 3 5 5 6 6 3 6 11 17 32 31 34 34 24 11
14 8 9 11 13 17 20 21 21 10 6 3 2 6 8 8 3 1 1 3 3 3 3 9 6 1 5 12 12 15 18 18 0 7 3 2 3 4 4 3 6 12 4 3 3 6 7 10 24 28 32 34 31 12
12 9 9 12 14 18 20 22 20 8 5 4 5 7 9 8 2 2 3 1 3 2 4 4 7 5 13 8 7 12 11 3 4 3 3 6 9 3 3 3 12 19 10 8 6 13 5 13 4 19 25 27 28 20
12 11 11 14 16 19 22 23 16 5 4 5 7 7 9 6 2 1 2 2 3 1 2 6 9 5 13 6 10 13 15 7 4 4 5 6 8 7 2 3 18 17 7 8 12 10 3 16 15 19 13 20 19 19
11 10 12 14 17 20 23 21 6 3 3 7 8 7 6 4 3 3 2 2 4 1 2 2 4 6 10 6 5 11 8 11 12 5 4 5 4 5 3 9 16 15 11 16 15 9 8 11 14 14 12 11 18 18
8 8 11 14 18 20 22 9 2 2 4 10 9 7 5 3 3 2 2 2 5 4 3 2 2 3 8 6 5 4 5 4 6 5 5 5 3 4 2 9 17 18 13 17 13 10 12 13 14 14 15 11 14 19
7 9 12 15 18 20 12 2 1 2 9 11 8 4 3 3 3 2 4 3 4 3 4 4 2 2 4 5 3 2 4 1 2 2 4 3 3 4 6 11 14 20 14 16 15 18 17 15 15 14 15 15 12 15
7 9 12 15 19 15 3 2 1 5 13 7 3 3 3 4 3 2 3 4 4 3 5 4 4 1 1 2 0 3 2 2 2 2 2 2 3 6 13 9 12 16 14 11 10 8 11 11 10 9 9 13 15 16
6 9 12 17 15 2 3 3 4 10 5 3 1 2 3 4 3 3 3 3 4 3 7 4 5 3 1 1 1 2 2 1 1 3 3 2 3 5 8 9 12 15 18 17 16 14 12 11 12 10 9 8 11 14
6 9 13 13 2 4 5 2 10 7 5 3 2 2 2 3 1 3 2 2 2 6 9 7 2 4 3 1 3 2 1 2 2 2 1 2 5 2 6 8 9 15 17 17 20 22 19 17 16 15 13 12 11 11
7 10 12 3 5 4 2 3 11 9 3 1 2 2 2 3 3 2 4 3 4 3 14 12 6 3 3 2 2 3 1 2 2 0 1 3 3 1 4 7 7 12 14 17 20 23 23 23 24 24 23 19 17 18
7 10 2 2 5 2 2 3 11 9 2 1 1 2 4 4 2 2 3 3 1 6 18 6 4 3 1 3 2 3 2 1 3 3 3 7 4 1 3 4 7 6 7 12 15 21 24 25 25 25 25 24 24 23
6 2 2 4 6 4 1 6 15 5 2 3 4 3 4 2 3 3 3 4 1 10 11 4 3 2 1 3 3 3 5 3 3 3 11 8 2 1 3 3 5 4 3 7 11 12 15 19 22 25 27 28 29 27
4 0 5 4 4 1 9 12 8 4 3 3 4 7 4 3 2 3 3 2 5 5 1 2 1 2 4 1 3 2 3 2 9 17 13 7 5 1 5 6 7 6 2 4 9 14 12 12 12 14 20 22 25 26
5 5 5 1 2 5 8 5 4 5 7 9 4 6 5 3 3 5 7 7 3 2 2 1 3 4 3 2 1 2 14 20 17 13 9 4 3 4 7 7 6 5 9 7 7 12 12 9 8 10 12 15 18 22
10 10 6 3 4 2 3 5 6 4 9 4 6 7 4 1 3 9 6 4 3 4 2 4 5 2 2 5 11 17 17 17 14 12 10 9 7 8 16 13 14 13 13 10 13 14 15 16 8 6 7 9 10 14
8 2 2 4 6 5 4 4 6 5 5 8 8 8 3 3 5 8 3 6 7 5 7 4 1 5 11 16 17 17 18 13 13 16 20 18 17 18 15 14 15 15 13 10 9 9 10 10 14 9 6 8 9 8
5 4 5 5 7 10 4 4 5 4 4 4 10 9 3 4 5 10 12 10 7 4 4 7 15 16 14 15 12 11 13 11 12 11 17 18 16 13 11 11 9 8 8 8 6 7 9 12 11 12 12 11 9 5
7 7 3 6 5 4 4 9 6 3 3 3 4 3 3 2 3 5 8 12 7 9 5 17 16 16 17 14 13 12 14 10 10 12 14 11 10 10 10 11 12 12 11 10 9 11 9 9 9 7 8 12 13 7
5 4 3 3 4 2 2 5 6 4 4 3 2 3 5 6 11 10 7 12 7 11 12 16 17 16 17 15 13 12 9 7 8 8 7 6 6 7 8 11 11 10 9 9 9 11 13 12 11 10 9 12 11 7
1 2 2 1 2 2 3 4 3 3 2 1 2 3 4 6 8 7 3 11 18 17 21 15 12 17 17 14 13 10 8 6 8 9 4 3 5 7 10 10 9 9 8 8 9 11 13 13 13 11 10 11 11 12
1 3 4 6 6 3 2 3 3 3 2 3 3 3 3 4 3 3 2 4 18 29 27 16 7 3 3 7 7 7 5 3 2 2 3 3 5 6 7 10 10 11 12 10 11 12 12 11 12 12 10 9 9 8
5 6 4 4 4 4 3 2 2 3 2 2 4 4 4 4 4 3 2 10 7 6 11 10 6 3 2 6 8 6 5 4 3 4 3 2 3 4 4 8 11 9 8 10 14 14 12 11 13 14 12 12 9 8
3 4 4 5 3 2 3 2 3 4 4 3 2 3 3 4 3 2 7 8 1 6 10 9 11 15 14 11 9 7 6 2 2 2 7 5 5 5 6 7 9 9 10 12 10 11 11 13 13 13 12 11 11 9
5 4 3 4 6 8 4 5 5 4 5 6 4 4 2 2 3 8 7 5 5 6 5 13 12 8 7 8 6 5 8 6 3 6 4 5 6 7 7 7 9 11 9 9 13 13 9 10 13 14 13 11 9 9
7 6 7 9 6 8 9 6 7 5 6 2 3 3 3 6 17 12 9 6 5 3 3 15 14 11 7 3 5 8 11 8 3 5 4 6 9 10 9 9 10 10 10 12 11 8 8 11 13 12 11 10 11 11
7 7 6 9 6 5 8 7 9 11 10 13 15 23 24 18 13 10 8 8 8 8 8 12 13 5 4 4 8 10 11 11 9 8 8 9 9 11 12 9 11 10 11 11 12 12 11 10 11 13 14 14 13 13
8 10 8 8 6 9 17 20 21 23 27 30 27 24 19 15 13 12 9 14 11 11 12 12 9 6 5 7 8 10 11 10 10 9 8 10 11 14 15 15 13 12 13 13 13 14 14 16 18 18 18 18 16 14
5 6 8 4 6 17 13 14 14 15 14 13 11 16 13 8 5 6 12 11 4 4 5 7 6 6 5 6 7 8 11 12 11 9 9 10 12 13 14 13 13 14 14 13 12 13 13 14 17 18 16 18 19 20
20 16 14 13 7 6 8 5 4 4 3 4 6 10 11 6 2 4 7 10 2 3 7 7 5 7 10 10 9 8 10 10 10 9 9 11 12 12 13 14 14 13 12 12 12 13 15 16 15 14 15 14 14 16
Wind_Direction
324 320 299 295 316 326 334 339 340 334 341 349 348 20 96 117 116 112 88 255 247 285 283 260 227 227 248 262 228 308 346 255 244 274 273 197 232 271 263 37 31 139 159 183 186 76 359 349 354 55 321 339 355 15
313 318 291 300 317 325 334 340 339 330 341 345 351 38 119 129 126 286 214 263 281 257 267 277 275 263 265 287 271 260 252 288 126 303 248 279 281 281 296 94 24 73 333 112 83 146 347 22 38 6 7 350 22 33
309 308 283 304 318 326 335 340 339 326 337 333 340 97 122 113 105 132 65 348 293 307 296 277 222 317 325 326 294 269 289 314 252 220 220 234 253 251 64 57 82 40 21 68 125 24 333 35 18 12 12 15 5 40
306 281 280 307 318 326 334 337 338 320 323 313 296 140 126 115 99 93 66 53 18 319 304 262 292 216 331 326 324 291 281 289 294 312 298 329 293 346 46 77 66 360 350 334 46 352 353 18 14 358 17 27 23 26
297 251 288 308 318 327 330 334 336 314 307 272 214 157 145 134 140 61 313 340 338 346 295 297 305 28 349 347 315 300 292 283 173 357 338 342 9 14 8 42 35 356 1 11 53 341 324 298 350 2 27 25 25 35
295 248 290 312 319 325 328 331 330 297 290 233 195 169 162 163 167 290 300 306 308 284 318 322 328 3 6 7 14 22 15 86 113 91 5 8 27 57 57 66 350 351 15 25 349 332 320 340 1 11 19 26 33 39
280 247 291 311 318 324 327 328 323 275 278 211 186 172 171 169 189 285 285 316 225 112 308 306 321 347 350 8 31 41 50 84 73 108 34 27 25 44 43 49 332 360 26 17 4 7 332 12 355 4 2 21 24 36
258 250 292 309 319 325 327 328 305 248 260 181 173 161 161 172 234 263 264 273 178 274 288 302 281 329 9 9 14 12 28 39 33 66 3 28 37 51 49 350 2 9 27 22 23 23 8 9 11 14 10 1 5 16
235 268 299 313 321 325 329 323 231 250 176 163 159 150 177 224 231 207 236 208 196 257 285 249 167 280 349 30 7 9 24 48 40 32 15 25 9 46 310 4 2 2 1 1 18 32 23 13 15 14 16 16 343 351
246 288 307 315 322 327 323 282 262 187 157 151 148 179 202 207 209 233 165 193 215 220 241 244 232 277 331 9 35 13 31 61 56 337 358 42 6 309 311 0 360 356 358 1 6 11 10 14 6 20 14 12 11 357
264 296 311 320 323 320 287 290 262 167 148 152 185 201 210 200 182 191 210 205 186 235 215 237 255 226 22 79 250 32 154 1 82 300 79 27 332 325 28 25 23 23 30 25 35 24 5 6 358 356 4 6 5 6
274 309 322 324 323 274 310 300 193 161 152 161 166 212 197 192 191 205 201 187 199 236 182 190 219 221 153 31 124 24 92 74 137 143 96 114 261 336 23 33 32 28 29 37 35 37 30 16 359 356 8 10 1 356
299 321 326 332 338 319 307 216 163 151 148 162 241 238 197 175 253 205 236 279 249 190 175 166 178 179 176 189 83 79 87 62 105 51 90 199 264 21 46 45 48 37 40 49 52 54 54 46 40 41 33 22 19 10
313 319 325 313 321 311 317 180 178 163 171 208 239 306 237 176 249 236 206 249 261 177 168 161 153 174 162 140 71 91 2 50 56 319 109 253 234 30 43 54 56 46 56 58 59 58 57 55 51 49 50 47 39 35
318 318 341 359 335 333 352 193 180 164 184 245 242 238 230 323 195 213 319 319 272 148 160 124 111 121 50 104 76 109 77 163 205 198 165 200 223 191 52 47 39 47 61 62 63 60 58 58 58 55 48 43 44 44
325 353 137 341 347 338 248 180 186 172 242 236 225 260 318 36 316 289 291 313 336 170 173 138 176 177 152 145 111 131 146 213 236 180 167 195 250 125 8 31 5 4 36 51 54 51 52 55 54 53 54 54 48 40
11 180 295 330 349 110 136 140 163 217 248 239 245 223 228 233 308 347 279 294 354 173 209 229 292 131 135 105 76 132 163 199 144 143 154 148 155 310 2 3 359 351 355 34 27 22 15 19 31 42 51 52 49 49
320 322 333 7 62 155 163 180 208 226 235 228 206 189 213 294 316 356 333 324 325 27 132 122 100 53 41 65 30 352 110 117 121 119 116 102 132 82 30 30 45 69 108 70 25 12 3 6 2 4 23 33 36 41
319 315 312 291 223 171 208 225 209 240 227 192 189 172 197 300 343 358 357 31 10 20 41 49 62 79 93 93 107 124 116 130 125 112 80 82 100 87 100 98 93 95 95 77 81 63 51 39 22 13 359 0 18 29
318 303 228 207 212 210 234 223 208 235 205 198 181 187 172 126 56 52 97 98 73 65 48 47 105 123 123 125 118 129 133 99 122 91 96 102 108 118 103 99 104 114 111 91 64 41 27 27 28 19 1 353 347 353
256 200 190 227 225 224 272 249 225 237 173 177 174 163 177 168 121 87 81 86 72 71 89 119 121 118 111 114 96 106 119 103 98 100 124 117 110 103 88 79 63 44 43 44 35 11 1 11 17 29 32 30 12 346
190 189 216 215 233 224 276 0 322 60 18 40 125 221 220 201 165 97 92 48 37 27 110 141 129 123 116 97 90 104 108 92 90 109 125 113 93 71 56 51 35 36 30 25 20 22 17 15 12 353 348 357 11 346
160 193 225 243 204 201 261 9 58 34 113 235 24 29 32 38 12 35 61 17 2 13 136 123 107 105 103 95 102 123 98 103 82 115 116 89 75 60 42 29 16 21 34 38 32 28 27 27 25 30 14 18 21 24
212 275 274 286 43 86 30 43 29 27 31 359 53 64 45 51 55 68 52 0 16 102 129 113 98 97 96 96 98 101 105 85 88 115 102 61 73 57 37 28 17 22 15 11 9 8 14 17 22 22 8 18 43 57
327 17 4 16 37 75 67 32 4 335 39 36 86 67 66 76 65 66 67 18 70 80 99 99 145 338 27 109 120 116 103 33 66 98 112 13 11 27 42 43 34 30 26 10 354 349 348 343 345 350 352 348 359 358
66 25 49 33 25 45 346 55 3 322 339 74 75 99 77 76 70 72 126 171 157 51 38 28 15 66 155 138 126 107 99 107 81 75 85 98 51 30 30 360 355 1 352 351 355 352 350 344 344 343 346 340 320 328
75 63 48 37 18 9 345 15 74 43 8 49 97 78 72 70 79 134 165 197 194 46 22 51 121 130 135 132 111 88 69 98 286 142 137 98 52 22 11 358 0 357 351 354 350 357 358 351 349 351 351 344 340 323
73 65 90 34 56 35 34 39 34 25 2 3 57 53 69 75 144 168 162 118 45 26 54 141 137 133 141 125 94 37 39 49 116 131 129 73 43 12 356 344 337 332 334 330 330 325 328 333 332 331 335 340 341 337
59 66 69 36 53 46 37 31 6 351 334 40 95 104 117 109 127 130 118 62 55 85 97 154 154 161 143 96 38 15 6 23 78 122 73 25 2 5 5 2 356 356 355 347 346 345 338 339 342 342 339 339 337 335
44 61 86 42 51 43 17 44 64 64 93 117 115 119 122 127 122 90 86 126 136 135 162 160 151 139 102 74 53 43 58 54 67 62 44 36 23 5 7 12 3 7 7 2 350 354 358 6 9 13 12 5 358 353
94 74 66 61 70 96 99 91 90 97 108 111 119 120 125 120 100 84 119 140 134 141 157 160 153 136 91 79 69 80 81 73 67 66 72 66 49 46 44 40 36 34 35 34 36 31 33 32 24 16 13 9 6 1
86 113 122 103 120 118 96 99 100 105 118 123 122 135 135 131 114 112 158 182 147 130 137 158 131 121 101 97 107 92 78 70 68 67 55 38 23 19 20 14 10 16 23 29 34 33 22 12 6 5 6 15 21 22
109 117 116 121 137 159 167 157 139 133 138 153 159 165 164 158 170 177 188 189 299 66 152 143 123 100 112 96 105 98 77 75 66 46 27 18 24 26 19 7 359 355 349 353 354 357 360 356 356 8 22 20 18 16